User: anonymous   Login
Location: Unspecified
(0.0000°N, 0.0000°E)
Time: 16:26:42
(UTC+02:00)
Language:

Delta 2 Rocket - Orbit

View from above orbital plane
View from above orbital plane
View from above satellite
View from above satellite

Ground track
Ground track

The orbit data is extracted from the following two-line orbital elements,

1 20453U 90008B   14295.77713231  .00014916  00000-0  94601-3 0  1102
2 20453 035.6240 136.1134 0319054 067.4145 295.9996 14.74714271304615
Epoch (UTC): 22 October 2014 18:39:04
Eccentricity: 0.0319054
inclination: 35.6240°
perigee height: 422 km
apogee height: 870 km
right ascension of ascending node: 136.1134°
argument of perigee: 67.4145°
revolutions per day: 14.74714271
mean anomaly at epoch: 295.9996°
orbit number at epoch: 30461

The dashed part of the orbit path shows where the satellite is in the earth's shadow,  

DLR